HST
1 20580U 90037B   24104.26451997  .00005977  00000-0  28741-3 0  9991
2 20580  28.4692  59.7911 0002646  48.1306 311.9512 15.16684964667168
ISS (ZARYA)
1 25544U 98067A   24104.97805485  .00016120  00000-0  28809-3 0  9997
2 25544  51.6383 273.7776 0004898  65.3145  78.5626 15.50167442448588
CXO
1 25867U 99040B   24107.04238756  .00000910  00000-0  00000-0 0  9999
2 25867  39.8445 159.8670 8948994 292.0276 359.9148  0.37809104 14330